This is the latest recevied weather packets stored in our database for station/object W4MLN-3. If no packets are shown the sender has not sent any weather packets the latest 10 day(s).
| Time | Temp. | Humidity | Pressure | Rain* | Wind** | Luminosity | Snow |
|---|---|---|---|---|---|---|---|
| 1787783703 | 19.44° C | 96% | 1019.5 hPa | 0 mm | - | - | - |
| 1787783403 | 19.44° C | 96% | 1019.4 hPa | 0.25 mm | - | - | - |
| 1787783103 | 19.44° C | 96% | 1019.3 hPa | 0.25 mm | - | - | - |
| 1787782818 | 19.44° C | 95% | 1019.3 hPa | 0.25 mm | - | - | - |
| 1787782504 | 19.44° C | 95% | 1019.4 hPa | 0.25 mm | - | - | - |
| 1787782210 | 19.44° C | 95% | 1019.4 hPa | 0.25 mm | - | - | - |
| 1787781903 | 20° C | 96% | 1019.4 hPa | 0.51 mm | - | - | - |
| 1787781604 | 20° C | 96% | 1019.3 hPa | 2.54 mm | - | - | - |
| 1787781303 | 20° C | 96% | 1019.5 hPa | 3.56 mm | - | - | - |
| 1787781003 | 20° C | 96% | 1019.5 hPa | 3.56 mm | - | - | - |
| 1787780703 | 20° C | 96% | 1019.4 hPa | 3.56 mm | - | - | - |
| 1787780403 | 20° C | 96% | 1019.4 hPa | 4.32 mm | - | - | - |
| 1787780104 | 19.44° C | 96% | 1019.3 hPa | 4.57 mm | - | - | - |
| 1787779803 | 19.44° C | 96% | 1019.3 hPa | 4.32 mm | - | - | - |
| 1787779503 | 19.44° C | 95% | 1019.3 hPa | 7.37 mm | - | - | - |
| 1787779203 | 19.44° C | 96% | 1019.6 hPa | 10.67 mm | - | - | - |
| 1787778903 | 19.44° C | 96% | 1019.4 hPa | 17.53 mm | - | - | - |
| 1787778603 | 18.89° C | 95% | 1019.2 hPa | 24.13 mm | - | - | - |
| 1787778303 | 18.89° C | 95% | 1019.3 hPa | 26.42 mm | - | - | - |
| 1787778003 | 18.89° C | 95% | 1019.7 hPa | 27.18 mm | - | - | - |
| 1787777703 | 18.89° C | 96% | 1019.8 hPa | 28.7 mm | - | - | - |
| 1787777403 | 18.33° C | 95% | 1019.7 hPa | 31.5 mm | - | - | - |
| 1787777145 | 18.33° C | 95% | 1019.6 hPa | 34.54 mm | - | - | - |
| 1787776803 | 17.78° C | 93% | 1019.7 hPa | 36.83 mm | - | - | - |
| 1787776503 | 17.78° C | 91% | 1019.7 hPa | 38.1 mm | - | - | - |
* Rain latest hour (hover to see other rain measurements)
** Current wind speed in m/s (hover to see current wind gust speed)